Dansville, NY
on Thursday, December 7, 2017

Thursday
       
Previous Day Next Day
Daily Summary
 ActualAverageRecord
Temperature
Mean Temperature °F °C °F °C  
Max Temperature 37°F 3°C 41°F 5°C 71°F 21°C (1960)
Min Temperature 28°F -2°C 25°F -3°C 6°F -14°C (1964)
Degree Days
Heating Degree Days 32    
Moisture
Dew Point 20°F -7°C   
Average Humidity 59    
Maximum Humidity 76    
Minimum Humidity 44    
Precipitation
Precipitation 0.00 in / 0.00 cm in / cm in / cm ()
Wind
Wind Speed 5 mph / 8 km/h   
Max Wind Speed 12 mph / 19 km/h   
Max Gust Speed 20 mph / 32 km/h   
Visibility 10 miles / 15 kilometers   
Events Snow   
Averages and records for this station are not official NWS values.
Key: T is trace of precipitation, MM is missing value
Source: NWS Daily Summary
Seasonal Weather Averages
Time(EST)TemperatureDew PointHumidity Pressure Visibility Wind DirectionWind SpeedGust SpeedPrecipitationEvents Conditions
12:54 AM 35.1°F 1.7°C 25.0°F -3.9°C 67% 29.95 in / 1014.0 hPa 8.0 miles / 12.9 kilometers West 5.8 mph / 9.3 km/h - 0.00 in / 0.0 cm Snow Light Snow
1:54 AM 35.1°F 1.7°C 25.0°F -3.9°C 67% 29.96 in / 1014.5 hPa 10.0 miles / 16.1 kilometers Calm Calm - 0.00 in / 0.0 cm   Overcast
2:54 AM 35.1°F 1.7°C 23.0°F -5.0°C 61% 29.96 in / 1014.5 hPa 10.0 miles / 16.1 kilometers Calm Calm - N/A   Overcast
3:54 AM 36.0°F 2.2°C 18.0°F -7.8°C 48% 29.95 in / 1014.2 hPa 10.0 miles / 16.1 kilometers Variable 5.8 mph / 9.3 km/h - N/A   Overcast
4:54 AM 36.0°F 2.2°C 19.0°F -7.2°C 50% 29.95 in / 1014.2 hPa 10.0 miles / 16.1 kilometers West 5.8 mph / 9.3 km/h - N/A   Overcast
5:54 AM 35.1°F 1.7°C 18.0°F -7.8°C 50% 29.96 in / 1014.3 hPa 10.0 miles / 16.1 kilometers West 4.6 mph / 7.4 km/h - N/A   Overcast
6:54 AM 34.0°F 1.1°C 17.1°F -8.3°C 50% 29.97 in / 1014.7 hPa 10.0 miles / 16.1 kilometers SSW 4.6 mph / 7.4 km/h - N/A   Overcast
7:54 AM 34.0°F 1.1°C 17.1°F -8.3°C 50% 29.97 in / 1014.8 hPa 10.0 miles / 16.1 kilometers South 6.9 mph / 11.1 km/h - N/A   Overcast
8:54 AM 33.1°F 0.6°C 17.1°F -8.3°C 52% 29.99 in / 1015.4 hPa 9.0 miles / 14.5 kilometers Variable 4.6 mph / 7.4 km/h - 0.00 in / 0.0 cm   Overcast
9:54 AM 32.0°F 0.0°C 19.0°F -7.2°C 59% 29.99 in / 1015.5 hPa 10.0 miles / 16.1 kilometers Variable 6.9 mph / 11.1 km/h - 0.00 in / 0.0 cm   Overcast
10:54 AM 34.0°F 1.1°C 17.1°F -8.3°C 50% 29.99 in / 1015.3 hPa 10.0 miles / 16.1 kilometers SW 9.2 mph / 14.8 km/h 19.6 mph / 31.5 km/h N/A   Overcast
11:54 AM 34.0°F 1.1°C 17.1°F -8.3°C 50% 29.97 in / 1014.8 hPa 10.0 miles / 16.1 kilometers Variable 5.8 mph / 9.3 km/h 17.3 mph / 27.8 km/h N/A   Overcast
12:54 PM 35.1°F 1.7°C 18.0°F -7.8°C 50% 29.94 in / 1013.9 hPa 10.0 miles / 16.1 kilometers SSW 6.9 mph / 11.1 km/h - N/A   Overcast
1:54 PM 37.0°F 2.8°C 17.1°F -8.3°C 44% 29.91 in / 1012.7 hPa 10.0 miles / 16.1 kilometers Variable 5.8 mph / 9.3 km/h - N/A   Overcast
2:54 PM 36.0°F 2.2°C 16.0°F -8.9°C 44% 29.91 in / 1012.9 hPa 10.0 miles / 16.1 kilometers SW 8.1 mph / 13.0 km/h 18.4 mph / 29.6 km/h N/A   Overcast
3:54 PM 36.0°F 2.2°C 16.0°F -8.9°C 44% 29.93 in / 1013.5 hPa 10.0 miles / 16.1 kilometers WNW 8.1 mph / 13.0 km/h - N/A   Overcast
4:54 PM 32.0°F 0.0°C 24.1°F -4.4°C 73% 29.95 in / 1014.1 hPa 10.0 miles / 16.1 kilometers NNW 11.5 mph / 18.5 km/h - N/A   Overcast
5:54 PM 32.0°F 0.0°C 24.1°F -4.4°C 73% 29.97 in / 1014.9 hPa 10.0 miles / 16.1 kilometers NNW 6.9 mph / 11.1 km/h - N/A   Overcast
6:54 PM 30.9°F -0.6°C 24.1°F -4.4°C 76% 29.99 in / 1015.3 hPa 8.0 miles / 12.9 kilometers NNW 5.8 mph / 9.3 km/h - 0.00 in / 0.0 cm Snow Light Snow
7:54 PM 30.9°F -0.6°C 24.1°F -4.4°C 76% 30.00 in / 1015.9 hPa 6.0 miles / 9.7 kilometers Calm Calm - 0.00 in / 0.0 cm Snow Light Snow
8:54 PM 30.0°F -1.1°C 21.0°F -6.1°C 69% 30.02 in / 1016.6 hPa 10.0 miles / 16.1 kilometers Variable 6.9 mph / 11.1 km/h - 0.00 in / 0.0 cm   Overcast
9:54 PM 30.0°F -1.1°C 19.9°F -6.7°C 66% 30.04 in / 1017.2 hPa 10.0 miles / 16.1 kilometers WNW 5.8 mph / 9.3 km/h - N/A   Overcast
10:54 PM 28.9°F -1.7°C 21.0°F -6.1°C 72% 30.04 in / 1017.0 hPa 10.0 miles / 16.1 kilometers Calm Calm - 0.00 in / 0.0 cm   Overcast
11:54 PM 28.9°F -1.7°C 21.0°F -6.1°C 72% 30.03 in / 1016.7 hPa 10.0 miles / 16.1 kilometers SW 4.6 mph / 7.4 km/h - N/A   Overcast